| time (UTC) | temp F | wind direction | speed knots | gust knots | rain 1hr in | rain 24hr in | rain mn in | humidity % | barometer mb |
| 20260901101458 | 61 | 187 | 4.3 | 8.7 | 0.00 | 0.00 | 0.00 | 81 | 1013.8 |
| 20260901100942 | 61 | 182 | 4.3 | 9.6 | 0.00 | 0.00 | 0.00 | 81 | 1013.8 |
| 20260901100506 | 61 | 205 | 5.2 | 10.4 | 0.00 | 0.00 | 0.00 | 81 | 1013.8 |
| 20260901095957 | 61 | 217 | 5.2 | 10.4 | 0.00 | 0.00 | 0.00 | 81 | 1013.8 |
| 20260901095437 | 61 | 228 | 5.2 | 8.7 | 0.00 | 0.00 | 0.00 | 81 | 1013.8 |
| 20260901094940 | 61 | 203 | 4.3 | 9.6 | 0.00 | 0.00 | 0.00 | 81 | 1013.8 |
| 20260901094423 | 61 | 203 | 3.5 | 8.7 | 0.00 | 0.00 | 0.00 | 80 | 1013.8 |
| 20260901093931 | 61 | 200 | 3.5 | 8.7 | 0.00 | 0.00 | 0.00 | 80 | 1013.8 |
| 20260901093436 | 61 | 220 | 3.5 | 8.7 | 0.00 | 0.00 | 0.00 | 80 | 1013.8 |
| 20260901092938 | 61 | 230 | 5.2 | 8.7 | 0.00 | 0.00 | 0.00 | 80 | 1013.8 |
| 20260901092430 | 61 | 212 | 2.6 | 7.8 | 0.00 | 0.00 | 0.00 | 80 | 1013.8 |
| 20260901091935 | 61 | 198 | 3.5 | 7.8 | 0.00 | 0.00 | 0.00 | 80 | 1013.8 |
| 20260901091422 | 61 | 238 | 3.5 | 8.7 | 0.00 | 0.00 | 0.00 | 79 | 1013.8 |
| 20260901090955 | 61 | 224 | 4.3 | 7.8 | 0.00 | 0.00 | 0.00 | 79 | 1013.8 |
| 20260901090437 | 61 | 225 | 5.2 | 8.7 | 0.00 | 0.00 | 0.00 | 79 | 1013.9 |
| 20260901085921 | 61 | 239 | 3.5 | 8.7 | 0.00 | 0.00 | 0.00 | 79 | 1013.8 |
| 20260901085448 | 61 | 219 | 4.3 | 9.6 | 0.00 | 0.00 | 0.00 | 79 | 1013.9 |
| 20260901084930 | 61 | 222 | 5.2 | 10.4 | 0.00 | 0.00 | 0.00 | 79 | 1013.8 |
| 20260901084434 | 61 | 207 | 6.1 | 10.4 | 0.00 | 0.00 | 0.00 | 79 | 1013.8 |
| 20260901083949 | 61 | 207 | 5.2 | 10.4 | 0.00 | 0.00 | 0.00 | 79 | 1013.7 |
| 20260901083430 | 61 | 221 | 6.1 | 10.4 | 0.00 | 0.00 | 0.00 | 79 | 1013.7 |
| 20260901082935 | 61 | 195 | 3.5 | 7.8 | 0.00 | 0.00 | 0.00 | 78 | 1013.9 |
| 20260901082421 | 61 | 199 | 4.3 | 7.8 | 0.00 | 0.00 | 0.00 | 78 | 1013.8 |
| 20260901081926 | 61 | 217 | 3.5 | 9.6 | 0.00 | 0.00 | 0.00 | 78 | 1013.9 |
| 20260901081426 | 61 | 226 | 5.2 | 10.4 | 0.00 | 0.00 | 0.00 | 78 | 1013.8 |
| 20260901080933 | 61 | 210 | 5.2 | 10.4 | 0.00 | 0.00 | 0.00 | 78 | 1013.7 |
| 20260901080418 | 61 | 226 | 4.3 | 9.6 | 0.00 | 0.00 | 0.00 | 78 | 1013.8 |
| 20260901075922 | 61 | 222 | 3.5 | 7.0 | 0.00 | 0.00 | 0.00 | 78 | 1013.8 |
| 20260901075427 | 61 | 249 | 4.3 | 7.0 | 0.00 | 0.00 | 0.00 | 78 | 1013.7 |
| 20260901074928 | 61 | 227 | 3.5 | 7.8 | 0.00 | 0.00 | 0.00 | 78 | 1013.8 |
| 20260901074435 | 61 | 249 | 2.6 | 9.6 | 0.00 | 0.00 | 0.00 | 78 | 1013.9 |
| 20260901073935 | 61 | 171 | 4.3 | 9.6 | 0.00 | 0.00 | 0.00 | 78 | 1013.8 |
| 20260901073439 | 61 | 224 | 3.5 | 7.8 | 0.00 | 0.00 | 0.00 | 79 | 1013.8 |
| 20260901072940 | 61 | 206 | 4.3 | 8.7 | 0.00 | 0.00 | 0.00 | 79 | 1013.8 |
| 20260901072424 | 61 | 218 | 3.5 | 7.0 | 0.00 | 0.00 | 0.00 | 79 | 1013.8 |
| 20260901071928 | 61 | 216 | 4.3 | 8.7 | 0.00 | 0.00 | 0.00 | 79 | 1013.9 |
| 20260901071434 | 61 | 196 | 5.2 | 9.6 | 0.00 | 0.00 | 0.00 | 79 | 1013.7 |
| 20260901070918 | 61 | 185 | 4.3 | 9.6 | 0.00 | 0.00 | 0.00 | 80 | 1013.8 |
| 20260901070507 | 61 | 221 | 4.3 | 7.0 | 0.00 | 0.00 | 0.00 | 80 | 1013.7 |
| 20260901065924 | 61 | 177 | 2.6 | 8.7 | 0.00 | 0.00 | 0.00 | 80 | 1013.8 |
| 20260901065430 | 61 | 268 | 5.2 | 8.7 | 0.00 | 0.00 | 0.00 | 80 | 1013.7 |
| 20260901064933 | 61 | 268 | 4.3 | 7.8 | 0.00 | 0.00 | 0.00 | 79 | 1013.8 |
| 20260901064438 | 61 | 243 | 4.3 | 7.8 | 0.00 | 0.00 | 0.00 | 79 | 1013.8 |
| 20260901063953 | 61 | 263 | 3.5 | 7.8 | 0.00 | 0.00 | 0.00 | 78 | 1013.8 |
| 20260901063429 | 62 | 216 | 4.3 | 8.7 | 0.00 | 0.00 | 0.00 | 78 | 1013.8 |
| 20260901062932 | 62 | 88 | 4.3 | 8.7 | 0.00 | 0.00 | 0.00 | 77 | 1013.9 |
| 20260901062417 | 62 | 252 | 3.5 | 11.3 | 0.00 | 0.00 | 0.00 | 77 | 1013.9 |
| 20260901061944 | 62 | 215 | 6.1 | 11.3 | 0.00 | 0.00 | 0.00 | 77 | 1013.8 |
| 20260901061429 | 62 | 268 | 5.2 | 12.2 | 0.00 | 0.00 | 0.00 | 77 | 1013.9 |
| 20260901060933 | 62 | 259 | 5.2 | 12.2 | 0.00 | 0.00 | 0.00 | 77 | 1013.9 |
| 20260901060431 | 62 | 235 | 4.3 | 7.8 | 0.00 | 0.00 | 0.00 | 77 | 1014.0 |
| 20260901055934 | 62 | 230 | 4.3 | 12.2 | 0.00 | 0.00 | 0.00 | 77 | 1014.0 |
| 20260901055419 | 62 | 294 | 5.2 | 12.2 | 0.00 | 0.00 | 0.00 | 77 | 1014.0 |
| 20260901054945 | 62 | 237 | 6.1 | 11.3 | 0.00 | 0.00 | 0.00 | 77 | 1014.0 |
| 20260901054430 | 62 | 207 | 4.3 | 9.6 | 0.00 | 0.00 | 0.00 | 77 | 1014.0 |
| 20260901053937 | 62 | 238 | 4.3 | 11.3 | 0.00 | 0.00 | 0.00 | 77 | 1014.1 |
| 20260901053419 | 61 | 193 | 4.3 | 11.3 | 0.00 | 0.00 | 0.00 | 77 | 1014.1 |
| 20260901052919 | 61 | 275 | 5.2 | 11.3 | 0.00 | 0.00 | 0.00 | 77 | 1014.1 |
| 20260901052445 | 62 | 270 | 5.2 | 11.3 | 0.00 | 0.00 | 0.00 | 77 | 1014.2 |
| 20260901051956 | 62 | 306 | 4.3 | 10.4 | 0.00 | 0.00 | 0.00 | 77 | 1014.1 |
| 20260901051419 | 62 | 272 | 4.3 | 7.0 | 0.00 | 0.00 | 0.00 | 77 | 1014.2 |
| 20260901050925 | 62 | 292 | 3.5 | 13.9 | 0.00 | 0.00 | 0.00 | 76 | 1014.2 |
| 20260901050432 | 62 | 242 | 4.3 | 13.9 | 0.00 | 0.00 | 0.00 | 76 | 1014.1 |
| 20260901045931 | 62 | 288 | 4.3 | 8.7 | 0.00 | 0.00 | 0.00 | 76 | 1014.1 |
| 20260901045436 | 62 | 280 | 4.3 | 8.7 | 0.00 | 0.00 | 0.00 | 76 | 1014.0 |
| 20260901044921 | 62 | 294 | 3.5 | 8.7 | 0.00 | 0.00 | 0.00 | 76 | 1014.0 |
| 20260901044425 | 62 | 238 | 4.3 | 8.7 | 0.00 | 0.00 | 0.00 | 76 | 1014.0 |
| 20260901043932 | 62 | 313 | 3.5 | 7.0 | 0.00 | 0.00 | 0.00 | 75 | 1014.0 |
| 20260901043434 | 62 | 280 | 3.5 | 7.0 | 0.00 | 0.00 | 0.00 | 75 | 1013.9 |
| 20260901042937 | 62 | 249 | 3.5 | 9.6 | 0.00 | 0.00 | 0.00 | 75 | 1013.9 |
| 20260901042419 | 62 | 222 | 6.1 | 9.6 | 0.00 | 0.00 | 0.00 | 75 | 1014.0 |
| 20260901041918 | 62 | 249 | 3.5 | 12.2 | 0.00 | 0.00 | 0.00 | 75 | 1014.0 |
| 20260901041432 | 62 | 280 | 3.5 | 9.6 | 0.00 | 0.00 | 0.00 | 75 | 1013.9 |
| 20260901040947 | 62 | 228 | 2.6 | 7.0 | 0.00 | 0.00 | 0.00 | 75 | 1013.9 |
| 20260901040430 | 62 | 251 | 2.6 | 8.7 | 0.00 | 0.00 | 0.00 | 75 | 1013.8 |
| 20260901035935 | 62 | 308 | 4.3 | 8.7 | 0.00 | 0.00 | 0.00 | 75 | 1013.8 |
| 20260901035418 | 61 | 276 | 4.3 | 8.7 | 0.00 | 0.00 | 0.00 | 76 | 1013.8 |
| 20260901034936 | 62 | 222 | 5.2 | 14.8 | 0.00 | 0.00 | 0.00 | 76 | 1013.8 |
| 20260901034444 | 61 | 261 | 5.2 | 14.8 | 0.00 | 0.00 | 0.00 | 76 | 1013.7 |
| 20260901033956 | 62 | 228 | 5.2 | 10.4 | 0.00 | 0.00 | 0.00 | 76 | 1013.5 |
| 20260901033418 | 61 | 239 | 4.3 | 11.3 | 0.00 | 0.00 | 0.00 | 76 | 1013.6 |
| 20260901032922 | 61 | 295 | 4.3 | 11.3 | 0.00 | 0.00 | 0.00 | 77 | 1013.5 |
| 20260901032441 | 61 | 282 | 4.3 | 9.6 | 0.00 | 0.00 | 0.00 | 78 | 1013.5 |
| 20260901031920 | 61 | 244 | 4.3 | 10.4 | 0.00 | 0.00 | 0.00 | 78 | 1013.4 |
| 20260901031453 | 61 | 248 | 5.2 | 10.4 | 0.00 | 0.00 | 0.00 | 78 | 1013.4 |
| 20260901030917 | 61 | 282 | 3.5 | 10.4 | 0.00 | 0.00 | 0.00 | 78 | 1013.3 |
| 20260901030418 | 61 | 268 | 5.2 | 10.4 | 0.00 | 0.00 | 0.00 | 78 | 1013.2 |
| 20260901025920 | 62 | 263 | 6.1 | 11.3 | 0.00 | 0.00 | 0.00 | 78 | 1013.2 |
| 20260901025445 | 62 | 247 | 5.2 | 11.3 | 0.00 | 0.00 | 0.00 | 78 | 1013.3 |
| 20260901024925 | 62 | 208 | 7.0 | 11.3 | 0.00 | 0.00 | 0.00 | 76 | 1013.3 |
| 20260901024431 | 62 | 249 | 4.3 | 11.3 | 0.00 | 0.00 | 0.00 | 76 | 1013.3 |
| 20260901023936 | 62 | 252 | 2.6 | 8.7 | 0.00 | 0.00 | 0.00 | 75 | 1013.2 |
| 20260901023420 | 62 | 14 | 3.5 | 10.4 | 0.00 | 0.00 | 0.00 | 75 | 1013.2 |
| 20260901022921 | 62 | 313 | 5.2 | 12.2 | 0.00 | 0.00 | 0.00 | 75 | 1013.3 |
| 20260901022449 | 62 | 273 | 4.3 | 13.9 | 0.00 | 0.00 | 0.00 | 76 | 1013.2 |
| 20260901021956 | 62 | 210 | 7.0 | 13.9 | 0.00 | 0.00 | 0.00 | 75 | 1013.2 |
| 20260901021420 | 62 | 257 | 5.2 | 11.3 | 0.00 | 0.00 | 0.00 | 75 | 1013.3 |
| 20260901020955 | 62 | 282 | 6.1 | 10.4 | 0.00 | 0.00 | 0.00 | 74 | 1013.3 |
| 20260901020505 | 62 | 270 | 4.3 | 11.3 | 0.00 | 0.00 | 0.00 | 74 | 1013.2 |
| 20260901015958 | 62 | 264 | 5.2 | 11.3 | 0.00 | 0.00 | 0.00 | 74 | 1013.2 |
| 20260901015452 | 62 | 271 | 4.3 | 11.3 | 0.00 | 0.00 | 0.00 | 74 | 1013.2 |
| 20260901014932 | 62 | 271 | 7.0 | 12.2 | 0.00 | 0.00 | 0.00 | 74 | 1013.3 |
| 20260901014418 | 62 | 225 | 7.0 | 12.2 | 0.00 | 0.00 | 0.00 | 73 | 1013.2 |
| 20260901013923 | 62 | 246 | 6.1 | 11.3 | 0.00 | 0.00 | 0.00 | 73 | 1013.2 |
| 20260901013427 | 63 | 359 | 6.1 | 13.0 | 0.00 | 0.00 | 0.00 | 73 | 1013.2 |
| 20260901012932 | 63 | 120 | 7.0 | 13.0 | 0.00 | 0.00 | 0.00 | 73 | 1013.3 |
| 20260901012437 | 63 | 244 | 6.1 | 9.6 | 0.00 | 0.00 | 0.00 | 73 | 1013.3 |
| 20260901011923 | 63 | 253 | 4.3 | 13.0 | 0.00 | 0.00 | 0.00 | 73 | 1013.2 |
| 20260901011424 | 63 | 273 | 5.2 | 13.0 | 0.00 | 0.00 | 0.00 | 73 | 1013.2 |
| 20260901010930 | 63 | 215 | 3.5 | 13.0 | 0.00 | 0.00 | 0.00 | 73 | 1013.1 |
| 20260901010434 | 63 | 249 | 6.1 | 13.9 | 0.00 | 0.00 | 0.00 | 74 | 1013.1 |
| 20260901005937 | 63 | 285 | 5.2 | 13.9 | 0.00 | 0.00 | 0.00 | 73 | 1013.1 |
| 20260901005453 | 63 | 278 | 2.6 | 11.3 | 0.00 | 0.00 | 0.00 | 74 | 1013.0 |
| 20260901004938 | 63 | 290 | 6.1 | 11.3 | 0.00 | 0.00 | 0.00 | 74 | 1013.2 |
| 20260901004423 | 63 | 212 | 4.3 | 11.3 | 0.00 | 0.00 | 0.00 | 74 | 1013.2 |
| 20260901003925 | 63 | 205 | 4.3 | 11.3 | 0.00 | 0.00 | 0.00 | 74 | 1013.2 |
| 20260901003432 | 63 | 329 | 6.1 | 15.6 | 0.00 | 0.00 | 0.00 | 75 | 1013.2 |
| 20260901002917 | 64 | 271 | 7.8 | 15.6 | 0.00 | 0.00 | 0.00 | 75 | 1013.2 |
| 20260901002422 | 64 | 256 | 6.1 | 13.9 | 0.00 | 0.00 | 0.00 | 75 | 1013.3 |
| 20260901001927 | 63 | 243 | 7.0 | 13.9 | 0.00 | 0.00 | 0.00 | 75 | 1013.2 |
| 20260901001431 | 63 | 209 | 7.8 | 11.3 | 0.00 | 0.00 | 0.00 | 76 | 1013.3 |
| 20260901000937 | 63 | 185 | 6.1 | 17.4 | 0.00 | 0.00 | 0.00 | 76 | 1013.4 |
| 20260901000437 | 63 | 210 | 7.8 | 17.4 | 0.00 | 0.00 | 0.00 | 76 | 1013.3 |
| 20260831235951 | 63 | 252 | 6.1 | 15.6 | 0.00 | 0.00 | 0.00 | 77 | 1013.3 |
| 20260831235434 | 63 | 239 | 6.1 | 15.6 | 0.00 | 0.00 | 0.00 | 77 | 1013.3 |
| 20260831234918 | 63 | 289 | 5.2 | 12.2 | 0.00 | 0.00 | 0.00 | 78 | 1013.5 |
| 20260831234423 | 63 | 273 | 7.0 | 13.0 | 0.00 | 0.00 | 0.00 | 77 | 1013.4 |
| 20260831233928 | 64 | 231 | 3.5 | 10.4 | 0.00 | 0.00 | 0.00 | 77 | 1013.6 |
| 20260831233433 | 64 | 218 | 4.3 | 12.2 | 0.00 | 0.00 | 0.00 | 77 | 1013.5 |
| 20260831232934 | 64 | 238 | 6.1 | 13.0 | 0.00 | 0.00 | 0.00 | 77 | 1013.5 |
| 20260831232451 | 64 | 273 | 8.7 | 13.0 | 0.00 | 0.00 | 0.00 | 77 | 1013.5 |
| 20260831231936 | 64 | 290 | 7.0 | 13.9 | 0.00 | 0.00 | 0.00 | 77 | 1013.4 |
| 20260831231419 | 64 | 280 | 7.0 | 13.9 | 0.00 | 0.00 | 0.00 | 77 | 1013.5 |
| 20260831230929 | 64 | 209 | 6.1 | 13.0 | 0.00 | 0.00 | 0.00 | 77 | 1013.5 |
| 20260831230432 | 64 | 280 | 7.0 | 13.0 | 0.00 | 0.00 | 0.00 | 76 | 1013.6 |
| 20260831225935 | 64 | 276 | 3.5 | 13.9 | 0.00 | 0.00 | 0.00 | 77 | 1013.7 |
| 20260831225421 | 64 | 259 | 7.0 | 13.9 | 0.00 | 0.00 | 0.00 | 76 | 1013.7 |
| 20260831224936 | 64 | 292 | 2.6 | 7.8 | 0.00 | 0.00 | 0.00 | 77 | 1013.8 |
| 20260831224422 | 64 | 99 | 3.5 | 13.0 | 0.00 | 0.00 | 0.00 | 77 | 1013.9 |
| 20260831223925 | 63 | 264 | 6.1 | 14.8 | 0.00 | 0.00 | 0.00 | 77 | 1013.8 |
| 20260831223427 | 63 | 229 | 6.1 | 14.8 | 0.00 | 0.00 | 0.00 | 76 | 1013.8 |
| 20260831222933 | 64 | 287 | 5.2 | 10.4 | 0.00 | 0.00 | 0.00 | 77 | 1013.8 |
| 20260831222437 | 63 | 282 | 4.3 | 10.4 | 0.00 | 0.00 | 0.00 | 78 | 1013.9 |
| 20260831221920 | 63 | 289 | 5.2 | 13.9 | 0.00 | 0.00 | 0.00 | 78 | 1014.0 |
| 20260831221422 | 63 | 261 | 7.0 | 13.9 | 0.00 | 0.00 | 0.00 | 78 | 1013.8 |
| 20260831220927 | 63 | 264 | 6.1 | 13.9 | 0.00 | 0.00 | 0.00 | 78 | 1013.9 |
| 20260831220432 | 63 | 268 | 7.8 | 13.9 | 0.00 | 0.00 | 0.00 | 78 | 1014.0 |
| 20260831215945 | 63 | 277 | 7.0 | 13.0 | 0.00 | 0.00 | 0.00 | 78 | 1014.0 |
| 20260831215432 | 63 | 283 | 7.8 | 13.0 | 0.00 | 0.00 | 0.00 | 78 | 1014.2 |
| 20260831214935 | 63 | 244 | 7.0 | 12.2 | 0.00 | 0.00 | 0.00 | 78 | 1014.3 |
| 20260831214418 | 63 | 282 | 6.1 | 12.2 | 0.00 | 0.00 | 0.00 | 78 | 1014.3 |
| 20260831213942 | 63 | 211 | 7.8 | 12.2 | 0.00 | 0.00 | 0.00 | 77 | 1014.3 |
| 20260831213425 | 63 | 210 | 4.3 | 12.2 | 0.00 | 0.00 | 0.00 | 78 | 1014.4 |
| 20260831212931 | 63 | 282 | 3.5 | 11.3 | 0.00 | 0.00 | 0.00 | 78 | 1014.4 |
| 20260831212436 | 63 | 216 | 5.2 | 11.3 | 0.00 | 0.00 | 0.00 | 78 | 1014.3 |
| 20260831211942 | 62 | 279 | 5.2 | 13.9 | 0.00 | 0.00 | 0.00 | 78 | 1014.5 |
| 20260831211423 | 63 | 247 | 7.0 | 13.9 | 0.00 | 0.00 | 0.00 | 78 | 1014.6 |
| 20260831210927 | 63 | 280 | 6.1 | 14.8 | 0.00 | 0.00 | 0.00 | 78 | 1014.6 |
| 20260831210431 | 63 | 257 | 5.2 | 14.8 | 0.00 | 0.00 | 0.00 | 77 | 1014.7 |
| 20260831205937 | 63 | 235 | 7.0 | 10.4 | 0.00 | 0.00 | 0.00 | 77 | 1014.8 |
| 20260831205421 | 63 | 275 | 3.5 | 11.3 | 0.00 | 0.00 | 0.00 | 78 | 1014.7 |
| 20260831204956 | 63 | 282 | 6.1 | 12.2 | 0.00 | 0.00 | 0.00 | 78 | 1014.6 |
| 20260831204419 | 63 | 218 | 6.1 | 12.2 | 0.00 | 0.00 | 0.00 | 78 | 1014.7 |
| 20260831203925 | 63 | 292 | 2.6 | 13.9 | 0.00 | 0.00 | 0.00 | 79 | 1014.6 |
| 20260831203423 | 62 | 242 | 6.1 | 13.9 | 0.00 | 0.00 | 0.00 | 78 | 1014.7 |
| 20260831202957 | 62 | 302 | 2.6 | 11.3 | 0.00 | 0.00 | 0.00 | 79 | 1014.6 |
| 20260831202422 | 62 | 275 | 5.2 | 12.2 | 0.00 | 0.00 | 0.00 | 79 | 1014.6 |
| 20260831201946 | 62 | 290 | 7.8 | 12.2 | 0.00 | 0.00 | 0.00 | 78 | 1014.5 |
| 20260831201429 | 62 | 276 | 5.2 | 10.4 | 0.00 | 0.00 | 0.00 | 79 | 1014.6 |
| 20260831200932 | 62 | 295 | 6.1 | 11.3 | 0.00 | 0.00 | 0.00 | 79 | 1014.6 |
| 20260831200433 | 62 | 232 | 4.3 | 11.3 | 0.00 | 0.00 | 0.00 | 79 | 1014.6 |
| 20260831195935 | 62 | 290 | 6.1 | 13.9 | 0.00 | 0.00 | 0.00 | 79 | 1014.6 |
| 20260831195420 | 62 | 299 | 5.2 | 11.3 | 0.00 | 0.00 | 0.00 | 79 | 1014.5 |
| 20260831194923 | 62 | 283 | 5.2 | 15.6 | 0.00 | 0.00 | 0.00 | 80 | 1014.5 |
| 20260831194429 | 62 | 280 | 6.1 | 15.6 | 0.00 | 0.00 | 0.00 | 79 | 1014.6 |
| 20260831193935 | 62 | 265 | 4.3 | 9.6 | 0.00 | 0.00 | 0.00 | 79 | 1014.7 |
| 20260831193436 | 62 | 247 | 3.5 | 10.4 | 0.00 | 0.00 | 0.00 | 80 | 1014.7 |
| 20260831192935 | 62 | 226 | 3.5 | 12.2 | 0.00 | 0.00 | 0.00 | 80 | 1014.7 |
| 20260831192421 | 61 | 270 | 6.1 | 13.0 | 0.00 | 0.00 | 0.00 | 80 | 1014.8 |
| 20260831191926 | 62 | 225 | 7.0 | 13.0 | 0.00 | 0.00 | 0.00 | 80 | 1014.8 |
| 20260831191433 | 62 | 345 | 3.5 | 9.6 | 0.00 | 0.00 | 0.00 | 80 | 1014.8 |
| 20260831190918 | 61 | 209 | 3.5 | 9.6 | 0.00 | 0.00 | 0.00 | 81 | 1014.7 |
| 20260831190425 | 61 | 62 | 4.3 | 8.7 | 0.00 | 0.00 | 0.00 | 80 | 1014.6 |
| 20260831185941 | 61 | 268 | 4.3 | 9.6 | 0.00 | 0.00 | 0.00 | 81 | 1014.7 |
| 20260831185452 | 61 | 273 | 6.1 | 9.6 | 0.00 | 0.00 | 0.00 | 81 | 1014.8 |
| 20260831184936 | 61 | 222 | 2.6 | 13.0 | 0.00 | 0.00 | 0.00 | 82 | 1014.8 |
| 20260831184441 | 61 | 228 | 5.2 | 13.0 | 0.00 | 0.00 | 0.00 | 81 | 1014.9 |
| 20260831183946 | 61 | 203 | 5.2 | 13.9 | 0.00 | 0.00 | 0.00 | 81 | 1014.9 |
| 20260831183426 | 61 | 232 | 5.2 | 14.8 | 0.00 | 0.00 | 0.00 | 82 | 1014.9 |
| 20260831182929 | 61 | 275 | 2.6 | 11.3 | 0.00 | 0.00 | 0.00 | 82 | 1014.9 |
| 20260831182431 | 61 | 306 | 3.5 | 7.8 | 0.00 | 0.00 | 0.00 | 82 | 1014.8 |
| 20260831181930 | 60 | 268 | 3.5 | 8.7 | 0.00 | 0.00 | 0.00 | 83 | 1014.8 |
| 20260831181437 | 60 | 284 | 4.3 | 10.4 | 0.00 | 0.00 | 0.00 | 83 | 1014.7 |
| 20260831180920 | 60 | 237 | 3.5 | 10.4 | 0.00 | 0.00 | 0.00 | 83 | 1014.8 |
| 20260831180425 | 60 | 259 | 1.7 | 11.3 | 0.00 | 0.00 | 0.00 | 84 | 1014.8 |
| 20260831175930 | 60 | 263 | 4.3 | 7.8 | 0.00 | 0.00 | 0.00 | 84 | 1014.8 |
| 20260831175435 | 59 | 217 | 2.6 | 8.7 | 0.00 | 0.00 | 0.00 | 84 | 1014.8 |
| 20260831174936 | 59 | 213 | 3.5 | 9.6 | 0.00 | 0.00 | 0.00 | 84 | 1014.9 |
| 20260831174437 | 59 | 235 | 3.5 | 9.6 | 0.00 | 0.00 | 0.00 | 85 | 1014.8 |
| 20260831173921 | 59 | 232 | 1.7 | 9.6 | 0.00 | 0.00 | 0.00 | 85 | 1014.7 |
| 20260831173424 | 59 | 218 | 5.2 | 11.3 | 0.00 | 0.00 | 0.00 | 85 | 1014.6 |
| 20260831172928 | 59 | 285 | 5.2 | 12.2 | 0.00 | 0.00 | 0.00 | 85 | 1014.7 |
| 20260831172433 | 59 | 273 | 7.0 | 12.2 | 0.00 | 0.00 | 0.00 | 85 | 1014.7 |
| 20260831171918 | 59 | 230 | 2.6 | 8.7 | 0.00 | 0.00 | 0.00 | 85 | 1014.7 |
| 20260831171418 | 59 | 268 | 1.7 | 8.7 | 0.00 | 0.00 | 0.00 | 85 | 1014.6 |
| 20260831170921 | 59 | 297 | 2.6 | 12.2 | 0.00 | 0.00 | 0.00 | 85 | 1014.6 |
| 20260831170427 | 58 | 335 | 5.2 | 12.2 | 0.00 | 0.00 | 0.00 | 85 | 1014.5 |
| 20260831165935 | 58 | 302 | 3.5 | 13.0 | 0.00 | 0.00 | 0.00 | 85 | 1014.5 |
| 20260831165419 | 58 | 273 | 7.0 | 13.0 | 0.00 | 0.00 | 0.00 | 85 | 1014.5 |
| 20260831164921 | 58 | 222 | 6.1 | 11.3 | 0.00 | 0.00 | 0.00 | 85 | 1014.4 |
| 20260831164423 | 58 | 254 | 7.0 | 10.4 | 0.00 | 0.00 | 0.00 | 85 | 1014.5 |
| 20260831163943 | 58 | 224 | 5.2 | 10.4 | 0.00 | 0.00 | 0.00 | 85 | 1014.4 |
| 20260831163445 | 58 | 239 | 3.5 | 8.7 | 0.00 | 0.00 | 0.00 | 86 | 1014.4 |
| 20260831162930 | 58 | 317 | 3.5 | 11.3 | 0.00 | 0.00 | 0.00 | 86 | 1014.4 |
| 20260831162434 | 58 | 243 | 6.1 | 11.3 | 0.00 | 0.00 | 0.00 | 86 | 1014.3 |
| 20260831161918 | 58 | 282 | 6.1 | 11.3 | 0.00 | 0.00 | 0.00 | 86 | 1014.3 |
| 20260831161424 | 58 | 45 | 3.5 | 8.7 | 0.00 | 0.00 | 0.00 | 86 | 1014.1 |
| 20260831160927 | 58 | 218 | 5.2 | 8.7 | 0.00 | 0.00 | 0.00 | 86 | 1014.0 |
| 20260831160429 | 58 | 284 | 2.6 | 7.8 | 0.00 | 0.00 | 0.00 | 86 | 1014.0 |
| 20260831155935 | 58 | 27 | 1.7 | 11.3 | 0.00 | 0.00 | 0.00 | 86 | 1014.0 |
| 20260831155420 | 58 | 324 | 2.6 | 11.3 | 0.00 | 0.00 | 0.00 | 86 | 1014.0 |
| 20260831154924 | 58 | 188 | 0.9 | 2.6 | 0.00 | 0.00 | 0.00 | 86 | 1014.1 |
| 20260831154427 | 58 | 323 | 1.7 | 7.0 | 0.00 | 0.00 | 0.00 | 86 | 1014.0 |
| 20260831153930 | 58 | 234 | 2.6 | 7.8 | 0.00 | 0.00 | 0.00 | 86 | 1014.1 |
| 20260831153430 | 58 | 123 | 3.5 | 11.3 | 0.00 | 0.00 | 0.00 | 86 | 1014.1 |
| 20260831152935 | 58 | 196 | 5.2 | 11.3 | 0.00 | 0.00 | 0.00 | 86 | 1014.0 |
| 20260831152420 | 58 | 239 | 3.5 | 10.4 | 0.00 | 0.00 | 0.00 | 86 | 1014.0 |
| 20260831151921 | 58 | 278 | 4.3 | 11.3 | 0.00 | 0.00 | 0.00 | 85 | 1014.0 |
| 20260831151425 | 58 | 207 | 4.3 | 11.3 | 0.00 | 0.00 | 0.00 | 85 | 1014.0 |
| 20260831150932 | 58 | 280 | 6.1 | 10.4 | 0.00 | 0.00 | 0.00 | 85 | 1014.0 |
| 20260831150433 | 58 | 263 | 4.3 | 10.4 | 0.00 | 0.00 | 0.00 | 85 | 1014.0 |
| 20260831145932 | 58 | 360 | 2.6 | 7.8 | 0.00 | 0.00 | 0.00 | 85 | 1014.0 |
| 20260831145418 | 58 | 240 | 3.5 | 10.4 | 0.00 | 0.00 | 0.00 | 85 | 1013.9 |
| 20260831144922 | 58 | 196 | 4.3 | 10.4 | 0.00 | 0.00 | 0.00 | 85 | 1013.9 |
| 20260831144454 | 58 | 271 | 2.6 | 9.6 | 0.00 | 0.00 | 0.00 | 85 | 1013.8 |
| 20260831143918 | 58 | 283 | 6.1 | 9.6 | 0.00 | 0.00 | 0.00 | 85 | 1013.7 |
| 20260831143422 | 58 | 214 | 3.5 | 6.1 | 0.00 | 0.00 | 0.00 | 85 | 1013.7 |
| 20260831142926 | 58 | 217 | 2.6 | 5.2 | 0.00 | 0.00 | 0.00 | 85 | 1013.5 |
| 20260831142428 | 58 | 206 | 1.7 | 7.0 | 0.00 | 0.00 | 0.00 | 85 | 1013.6 |
| 20260831141933 | 58 | 268 | 2.6 | 8.7 | 0.00 | 0.00 | 0.00 | 85 | 1013.5 |
| 20260831141418 | 58 | 237 | 3.5 | 8.7 | 0.00 | 0.00 | 0.00 | 85 | 1013.3 |
| 20260831140923 | 58 | 240 | 2.6 | 6.1 | 0.00 | 0.00 | 0.00 | 85 | 1013.2 |
| 20260831140426 | 57 | 139 | 1.7 | 8.7 | 0.00 | 0.00 | 0.00 | 85 | 1013.1 |
| 20260831135931 | 58 | 261 | 3.5 | 8.7 | 0.00 | 0.00 | 0.00 | 85 | 1013.2 |
| 20260831135420 | 58 | 252 | 3.5 | 8.7 | 0.00 | 0.00 | 0.00 | 85 | 1013.1 |
| 20260831134927 | 58 | 254 | 3.5 | 8.7 | 0.00 | 0.00 | 0.00 | 85 | 1013.1 |
| 20260831134428 | 58 | 263 | 4.3 | 11.3 | 0.00 | 0.00 | 0.00 | 85 | 1013.1 |
| 20260831133936 | 58 | 210 | 7.0 | 11.3 | 0.00 | 0.00 | 0.00 | 84 | 1013.0 |
| 20260831133418 | 58 | 261 | 1.7 | 9.6 | 0.00 | 0.00 | 0.00 | 84 | 1013.0 |
| 20260831132925 | 58 | 280 | 4.3 | 10.4 | 0.00 | 0.00 | 0.00 | 84 | 1012.9 |
| 20260831132457 | 58 | 254 | 5.2 | 10.4 | 0.00 | 0.00 | 0.00 | 84 | 1012.9 |
| 20260831131923 | 58 | 250 | 5.2 | 11.3 | 0.00 | 0.00 | 0.00 | 84 | 1013.1 |
| 20260831131427 | 58 | 216 | 5.2 | 11.3 | 0.00 | 0.00 | 0.00 | 84 | 1013.1 |
| 20260831130928 | 58 | 273 | 3.5 | 10.4 | 0.00 | 0.00 | 0.00 | 84 | 1012.9 |
| 20260831130432 | 58 | 216 | 2.6 | 10.4 | 0.00 | 0.00 | 0.00 | 84 | 1012.9 |
| 20260831125925 | 58 | 275 | 3.5 | 10.4 | 0.00 | 0.00 | 0.00 | 84 | 1012.9 |
| 20260831125427 | 58 | 270 | 5.2 | 10.4 | 0.00 | 0.00 | 0.00 | 84 | 1012.8 |
| 20260831124932 | 58 | 239 | 4.3 | 11.3 | 0.00 | 0.00 | 0.00 | 84 | 1012.8 |
| 20260831124437 | 58 | 254 | 5.2 | 12.2 | 0.00 | 0.00 | 0.00 | 83 | 1012.8 |
| 20260831123923 | 58 | 227 | 6.1 | 12.2 | 0.00 | 0.00 | 0.00 | 83 | 1012.9 |
| 20260831123422 | 58 | 220 | 3.5 | 11.3 | 0.00 | 0.00 | 0.00 | 83 | 1012.8 |
| 20260831122927 | 58 | 225 | 5.2 | 11.3 | 0.00 | 0.00 | 0.00 | 83 | 1012.8 |
| 20260831122432 | 58 | 268 | 1.7 | 7.8 | 0.00 | 0.00 | 0.00 | 83 | 1012.8 |
| 20260831121936 | 58 | 99 | 3.5 | 7.8 | 0.00 | 0.00 | 0.00 | 83 | 1012.8 |
| 20260831121423 | 58 | 228 | 1.7 | 7.8 | 0.00 | 0.00 | 0.00 | 83 | 1012.8 |
| 20260831120928 | 58 | 347 | 2.6 | 7.8 | 0.00 | 0.00 | 0.00 | 83 | 1012.8 |
| 20260831120422 | 58 | 208 | 4.3 | 7.0 | 0.00 | 0.00 | 0.00 | 83 | 1012.7 |
| 20260831115922 | 58 | 301 | 2.6 | 7.8 | 0.00 | 0.00 | 0.00 | 83 | 1012.6 |
| 20260831115456 | 58 | 320 | 2.6 | 8.7 | 0.00 | 0.00 | 0.00 | 83 | 1012.6 |
| 20260831114920 | 58 | 299 | 5.2 | 8.7 | 0.00 | 0.00 | 0.00 | 83 | 1012.6 |
| 20260831114452 | 58 | 239 | 0.9 | 7.0 | 0.00 | 0.00 | 0.00 | 83 | 1012.7 |
| 20260831113936 | 58 | 313 | 3.5 | 7.0 | 0.00 | 0.00 | 0.00 | 83 | 1012.7 |
| 20260831113421 | 58 | 313 | 0.9 | 9.6 | 0.00 | 0.00 | 0.00 | 83 | 1012.6 |
| 20260831112923 | 58 | 256 | 1.7 | 8.7 | 0.00 | 0.00 | 0.00 | 83 | 1012.6 |
| 20260831112426 | 58 | 88 | 0.9 | 4.3 | 0.00 | 0.00 | 0.00 | 83 | 1012.7 |
| 20260831111931 | 58 | 276 | 1.7 | 6.1 | 0.00 | 0.00 | 0.00 | 83 | 1012.6 |
| 20260831111435 | 58 | 239 | 0.9 | 7.8 | 0.00 | 0.00 | 0.00 | 83 | 1012.7 |
| 20260831110938 | 58 | 31 | 2.6 | 7.8 | 0.00 | 0.00 | 0.00 | 83 | 1012.7 |
| 20260831110440 | 58 | 185 | 4.3 | 7.8 | 0.00 | 0.00 | 0.00 | 83 | 1012.7 |
| 20260831105925 | 58 | 57 | 1.7 | 6.1 | 0.00 | 0.00 | 0.00 | 83 | 1012.7 |
| 20260831105426 | 58 | 78 | 0.9 | 6.1 | 0.00 | 0.00 | 0.00 | 83 | 1012.6 |
| 20260831104932 | 58 | 207 | 2.6 | 8.7 | 0.00 | 0.00 | 0.00 | 83 | 1012.6 |
| 20260831104439 | 58 | 230 | 3.5 | 8.7 | 0.00 | 0.00 | 0.00 | 83 | 1012.5 |
| 20260831103925 | 58 | 239 | 0.9 | 7.0 | 0.00 | 0.00 | 0.00 | 83 | 1012.6 |
| 20260831103430 | 58 | 299 | 3.5 | 8.7 | 0.00 | 0.00 | 0.00 | 83 | 1012.5 |
| 20260831102936 | 58 | 217 | 3.5 | 11.3 | 0.00 | 0.00 | 0.00 | 83 | 1012.5 |
| 20260831102422 | 58 | 222 | 6.1 | 12.2 | 0.00 | 0.00 | 0.00 | 83 | 1012.5 |
| 20260831101922 | 58 | 202 | 4.3 | 12.2 | 0.00 | 0.00 | 0.00 | 83 | 1012.5 |